Find Starlink 30819

NORAD ID: 58179 Int'l Des: 2023-167 Owner: SPXS Country: US Constellation: starlink operational
LEOCIRCULAR

Live Position

Loading 3D Globe...

About Starlink 30819

Description loading...

Upcoming Passes

Passes for default location (London). Set your location on the main map for personalized predictions.

Altitude History

Loading altitude history...

Two-Line Element Set

1 58179U 23167E 26105.23248649 .00011317 00000-0 42081-3 0 9992
2 58179 43.0013 297.0457 0000399 255.8047 104.2760 15.27526734136573
Epoch: Apr 15, 2026 • Age: 30 hours

Current Status

Altitude 484.2 km
Velocity 7.63 km/s
Sub-Earth Point 31.65°N, 47.77°W
Launch Date Oct 30, 2023
Age 2.4 years
Type internet

Technical Details

Classification Payload
Mass 730.00 kg
Dry Mass 700.00 kg
Total Mass 730.00 kg
Length 0.30 m
Diameter 4.10 m
Span 29.00 m
Shape Box + pan
Manufacturer SPXS
Bus Type Starlink V2M
Phase Status In Orbit
Owner/State SPXS/US

Most Searched